Location: Unspecified
(0.0000°N, 0.0000°E)
Time: 12:36:31
(UTC+00:00)

Hubble Space Telescope - Pass Details

Date: 06 December 2019
Orbit: 536 x 540 km, 28.5° (Epoch: 10 December)

Event Time Altitude Azimuth Distance (km) Brightness Sun altitude
Rises 18:25:48 0° 285° (WNW) 2,664 5.2 -8.0°
Reaches altitude 10° 18:28:11 10° 276° (W) 1,776 4.5 -8.6°
Maximum altitude 18:31:57 35° 210° (SSW) 877 2.4 -9.4°
Drops below altitude 10° 18:35:44 10° 143° (SE) 1,780 3.3 -10.3°
Sets 18:38:08 0° 134° (SE) 2,672 4.1 -10.9°
